Duluth, MN

4:21 PM CST on December 08, 2016 (GMT -0600)
Duluth International

Weather History for KDLH - August, 2014

Change the Weather History Date:

Friday, August 29, 2014

  Actual Average Record
Temperature  
Mean Temperature 63 °F 62 °F  
Max Temperature 65 °F 72 °F 91 °F (1961)
Min Temperature 60 °F 52 °F 33 °F (1976)
Degree Days  
Heating Degree Days 2 4  
Month to date heating degree days 35 76  
Since 1 June heating degree days 237 318  
Since 1 July heating degree days 75 139  
Cooling Degree Days 0 1  
Month to date cooling degree days 38 65  
Year to date cooling degree days 170 189  
Since 1 June cooling degree days 152 185  
Growing Degree Days 12 (Base 50)    
Moisture  
Dew Point 59 °F    
Average Humidity 91    
Maximum Humidity 97    
Minimum Humidity 84    
Precipitation  
Precipitation 0.56 in 0.12 in 2.40 in (1941)
Month to date precipitation 4.62 3.45  
Year to date precipitation 24.94 20.45  
Snow  
Snow 0.00 in 0.00 in 0.00 in (2002)
Month to date snowfall 0.0 0.0  
Since 1 June snowfall T 0.0  
Since 1 July snowfall 0.0 0.0  
Snow Depth 0.00 in    
Sea Level Pressure  
Sea Level Pressure 29.82 in    
Wind  
Wind Speed 5 mph (ESE)    
Max Wind Speed 14 mph    
Max Gust Speed 17 mph    
Visibility 4 miles    
Events Fog , Rain    
T = Trace of Precipitation, MM = Missing Value Source: NWS Daily Summary

Daily Weather History Graph

Daily Weather History Graph

Search for Another Location

Airport or City:

Trip Planner

Search our weather history database for the weather conditions in past years. The results will help you decide how hot, cold, wet, or windy it might be!

Date:

Astronomy

Aug. 29, 2014 Rise Set
Actual Time 6:24 AM CDT 7:53 PM CDT
Civil Twilight 5:52 AM CDT 8:25 PM CDT
Nautical Twilight 5:14 AM CDT 9:03 PM CDT
Astronomical Twilight 4:32 AM CDT 9:45 PM CDT
Moon 10:31 AM CDT (8/29) 9:33 PM CDT (8/29)
Length of Visible Light 14h 32m
Length of Day
13h 29m
Waxing Crescent, 15% of the Moon is Illuminated
Aug 29
Waxing Crescent
Sep 2
First Quarter
Sep 8
Full
Sep 15
Last Quarter
Sep 24
New

Hourly Weather History & Observations

Time (CDT) Temp. Dew Point Humidity Pressure Visibility Wind Dir Wind Speed Gust Speed Precip Events Conditions
12:17 AM 60.1 °F 55.0 °F 83% 29.96 in 10.0 mi ESE 6.9 mph - N/A   Overcast
12:29 AM 60.1 °F 55.0 °F 83% 29.95 in 10.0 mi East 5.8 mph - 0.00 in Rain Light Rain
12:48 AM 60.1 °F 55.0 °F 83% 29.95 in 10.0 mi ESE 5.8 mph - 0.00 in   Overcast
12:55 AM 60.1 °F 55.0 °F 83% 29.95 in 10.0 mi ESE 5.8 mph - 0.00 in   Overcast
1:55 AM 60.1 °F 55.9 °F 86% 29.91 in 10.0 mi East 5.8 mph - N/A   Mostly Cloudy
2:05 AM 60.1 °F 55.9 °F 86% 29.91 in 10.0 mi ESE 4.6 mph - N/A   Overcast
2:51 AM 60.8 °F 55.4 °F 82% 29.89 in 10.0 mi ESE 6.9 mph - N/A   Overcast
2:55 AM 61.0 °F 55.9 °F 83% 29.89 in 10.0 mi ESE 8.1 mph - N/A   Overcast
3:55 AM 61.0 °F 57.0 °F 87% 29.87 in 10.0 mi East 6.9 mph - N/A   Overcast
4:55 AM 61.0 °F 57.9 °F 90% 29.87 in 10.0 mi East 8.1 mph - N/A   Overcast
5:50 AM 60.8 °F 57.2 °F 88% 29.86 in 2.5 mi ESE 8.1 mph - 0.00 in   Light Drizzle
5:55 AM 61.0 °F 57.9 °F 90% 29.86 in 1.5 mi ESE 10.4 mph - 0.00 in   Light Drizzle
6:37 AM 61.0 °F 57.9 °F 90% 29.85 in 2.0 mi ESE 10.4 mph - 0.00 in   Light Drizzle
6:47 AM 61.0 °F 59.0 °F 93% 29.85 in 1.5 mi ESE 10.4 mph - 0.00 in   Light Drizzle
6:55 AM 61.0 °F 59.0 °F 93% 29.86 in 1.5 mi ESE 9.2 mph - 0.00 in   Light Drizzle
7:06 AM 61.0 °F 59.0 °F 93% 29.85 in 0.8 mi ESE 9.2 mph - 0.00 in   Light Drizzle
7:23 AM 61.0 °F 59.0 °F 93% 29.84 in 0.2 mi ESE 11.5 mph - 0.00 in Fog Light Drizzle
7:31 AM 61.0 °F 59.0 °F 93% 29.83 in 0.5 mi ESE 11.5 mph - 0.00 in Rain Light Rain
7:44 AM 62.1 °F 59.0 °F 90% 29.83 in 1.0 mi SE 11.5 mph - 0.01 in Rain Light Rain
7:53 AM 62.6 °F 59.0 °F 88% 29.82 in 2.0 mi ESE 9.2 mph - 0.02 in Rain Light Rain
7:55 AM 62.1 °F 59.0 °F 90% 29.83 in 2.0 mi ESE 9.2 mph - 0.02 in Rain Light Rain
8:03 AM 61.0 °F 59.0 °F 93% 29.83 in 0.5 mi ESE 10.4 mph - 0.00 in Fog Light Drizzle
8:19 AM 61.0 °F 59.0 °F 93% 29.83 in 0.2 mi ESE 12.7 mph - 0.00 in Fog Light Drizzle
8:26 AM 61.0 °F 59.0 °F 93% 29.82 in 0.5 mi ESE 11.5 mph - 0.00 in   Light Drizzle
8:33 AM 61.0 °F 59.0 °F 93% 29.82 in 1.0 mi SE 10.4 mph - 0.00 in   Light Drizzle
8:55 AM 61.0 °F 59.0 °F 93% 29.82 in 1.0 mi SE 10.4 mph - 0.00 in   Light Drizzle
9:18 AM 61.0 °F 59.0 °F 93% 29.81 in 0.5 mi SE 12.7 mph - 0.00 in Fog Light Drizzle
9:55 AM 61.0 °F 59.0 °F 93% 29.81 in 1.0 mi ESE 11.5 mph - 0.00 in Rain Light Rain
10:55 AM 61.0 °F 59.0 °F 93% 29.81 in 1.5 mi SE 5.8 mph - 0.07 in Rain Light Rain
11:55 AM 62.1 °F 60.1 °F 93% 29.81 in 3.0 mi ESE 3.5 mph - 0.09 in Rain Light Rain
12:14 PM 63.0 °F 60.1 °F 90% 29.79 in 3.0 mi Calm Calm - 0.02 in Rain Light Rain
12:23 PM 63.0 °F 60.1 °F 90% 29.79 in 3.0 mi Calm Calm - 0.03 in Rain Light Rain
12:55 PM 64.0 °F 61.0 °F 90% 29.80 in 3.0 mi North 3.5 mph - 0.04 in Rain Light Rain
1:55 PM 64.0 °F 61.0 °F 90% 29.78 in 3.0 mi SSE 5.8 mph - 0.11 in Rain Light Rain
2:06 PM 64.0 °F 61.0 °F 90% 29.78 in 3.0 mi South 5.8 mph - 0.00 in Rain Light Rain
2:32 PM 64.0 °F 61.0 °F 90% 29.78 in 3.0 mi Calm Calm - 0.01 in Rain Light Rain
2:55 PM 63.0 °F 61.0 °F 93% 29.78 in 3.0 mi South 3.5 mph - 0.03 in Rain Rain
3:11 PM 63.0 °F 61.0 °F 93% 29.77 in 2.0 mi SSE 3.5 mph - 0.05 in Rain Light Rain
3:55 PM 64.0 °F 61.0 °F 90% 29.75 in 3.0 mi ENE 4.6 mph - 0.20 in Rain Light Rain
4:44 PM 64.9 °F 62.1 °F 90% 29.75 in 3.0 mi Calm Calm - 0.00 in   Overcast
4:55 PM 64.9 °F 62.1 °F 90% 29.76 in 3.0 mi Calm Calm - 0.00 in   Overcast
5:03 PM 64.9 °F 62.1 °F 90% 29.76 in 1.0 mi Calm Calm - N/A   Overcast
5:13 PM 64.9 °F 62.1 °F 90% 29.76 in 0.8 mi SSE 4.6 mph - 0.00 in Rain Light Rain
5:46 PM 64.0 °F 62.1 °F 93% 29.77 in 1.5 mi SSE 5.8 mph - 0.00 in Rain Light Rain
5:55 PM 64.0 °F 61.0 °F 90% 29.77 in 2.0 mi SE 4.6 mph - 0.00 in Rain Light Rain
6:41 PM 63.0 °F 61.0 °F 93% 29.76 in 1.5 mi East 3.5 mph - 0.00 in   Overcast
6:55 PM 63.0 °F 61.0 °F 93% 29.77 in 0.8 mi Calm Calm - 0.00 in   Overcast
7:27 PM 62.1 °F 60.1 °F 93% 29.78 in 0.2 mi SSE 3.5 mph - N/A Fog Fog
7:55 PM 62.1 °F 60.1 °F 93% 29.78 in 0.2 mi Calm Calm - N/A Fog Fog
8:02 PM 62.1 °F 60.1 °F 93% 29.78 in 0.8 mi Calm Calm - N/A   Mist
8:44 PM 62.1 °F 60.1 °F 93% 29.79 in 1.5 mi Calm Calm - N/A   Overcast
8:55 PM 62.1 °F 60.1 °F 93% 29.80 in 1.5 mi Calm Calm - N/A   Overcast
9:02 PM 62.1 °F 60.1 °F 93% 29.80 in 2.0 mi Calm Calm - N/A   Overcast
9:45 PM 63.0 °F 60.1 °F 90% 29.80 in 3.0 mi Calm Calm - 0.00 in   Overcast
9:55 PM 63.0 °F 60.1 °F 90% 29.81 in 3.0 mi Calm Calm - 0.00 in   Overcast
10:55 PM 63.0 °F 60.1 °F 90% 29.81 in 6.0 mi Calm Calm - N/A   Overcast
11:09 PM 63.0 °F 61.0 °F 93% 29.80 in 10.0 mi Calm Calm - N/A   Overcast
11:31 PM 64.0 °F 61.0 °F 90% 29.80 in 9.0 mi NNE 3.5 mph - N/A   Overcast
11:55 PM 64.0 °F 61.0 °F 90% 29.80 in 10.0 mi North 4.6 mph - N/A   Overcast